Flag for Australia Weather past 2 weeks in Cairns, Queensland, Australia

Now
77 °F

Sprinkles. Broken clouds.


Feels Like: 78 °F
Forecast: 76 / 84 °F
Wind: 12 mph from South

Location: Cairns Airport

Current Time: Apr 18, 2015 at 6:19:54 PM

Latest Report: Apr 18, 2015 at 6:00 PM


Visibility: N/A

Pressure: 29.92 "Hg

Humidity: 89%

Dew point: 73 °F

Location of CairnsLocation

Historic Weather in Cairns — Graph

°F

Cairns temperature yesterday

Maximum temperature yesterday: 84 °F (at 11:30 AM)
Minimum temperature yesterday: 73 °F (at 12:30 AM)
Average temperature yesterday: 78 °F

Past Weeks' High & Low Weather Summary

 TemperatureHumidityPressure
High90 °F (Apr 8, 11:00 AM)100% (Apr 7, 3:00 AM)30.09 "Hg (Apr 7, 3:00 AM)
Low72 °F (Apr 4, 5:00 AM)49% (Apr 8, 11:00 AM)29.71 "Hg (Apr 5, 5:00 PM)
Average79 °F77%29.91 "Hg
* Reported Apr 3 5:00 PM — Apr 18 5:00 PM, Cairns, Weather by CustomWeather, © 2015

Note: Actual official high and low records may vary slightly from our data, if they occured in-between our weather recording intervals... More about our weather records

Advertising

Cairns weather history for previous 24 hours

 ConditionsComfort  
Time TempWeatherWind HumidityBarometerVisibility
5:00 PM
Sat, Apr 18
77 °FSprinkles. Broken clouds.9 mph94%29.92 "Hg5 mi
4:30 PM79 °FSprinkles. Broken clouds.8 mph89%29.89 "HgN/A
4:00 PM81 °FSprinkles. Broken clouds.12 mph89%29.89 "Hg4 mi
3:30 PM79 °FSprinkles. Scattered clouds.15 mph89%29.89 "HgN/A
3:00 PM81 °FScattered showers. Scattered clouds.10 mph84%29.89 "HgN/A
2:30 PM81 °FScattered clouds.10 mph84%29.89 "HgN/A
2:00 PM77 °FSprinkles. Broken clouds.13 mph94%29.92 "HgN/A
1:00 PM81 °FSprinkles. Broken clouds.13 mph84%29.95 "Hg4 mi
12:30 PM81 °FScattered showers. Broken clouds.12 mph89%29.95 "HgN/A
12:00 PM79 °FSprinkles. Broken clouds.8 mph89%29.95 "HgN/A
11:30 AM79 °FMixture of precip. Broken clouds.10 mph89%29.98 "HgN/A
11:00 AM79 °FMixture of precip. Broken clouds.9 mph89%29.98 "HgN/A
10:30 AM79 °FMixture of precip. Broken clouds.12 mph84%29.98 "HgN/A
10:00 AM79 °FScattered showers. Broken clouds.12 mph89%29.98 "HgN/A
9:00 AM75 °FSprinkles. Broken clouds.10 mph94%29.98 "Hg3 mi
8:30 AM77 °FSprinkles. Broken clouds.9 mph89%29.95 "HgN/A
8:00 AM75 °FSprinkles. Broken clouds.13 mph94%29.95 "HgN/A
7:00 AM75 °FScattered showers. Broken clouds.13 mph94%29.92 "HgN/A
6:30 AM75 °FScattered showers. Broken clouds.12 mph89%29.92 "HgN/A
6:00 AM75 °FSprinkles. Partly cloudy.12 mph89%29.92 "HgN/A
5:30 AM75 °FSprinkles. Partly cloudy.12 mph89%29.89 "Hg5 mi
5:00 AM75 °FScattered showers. Partly cloudy.15 mph89%29.92 "HgN/A
4:30 AM75 °FSprinkles. Passing clouds.10 mph89%29.92 "Hg4 mi
4:00 AM75 °FSprinkles. Partly cloudy.13 mph89%29.89 "Hg4 mi
3:30 AM75 °FScattered showers. Passing clouds.10 mph83%29.89 "HgN/A
3:00 AM77 °FSprinkles. Partly cloudy.10 mph79%29.92 "Hg6 mi
2:30 AM77 °FScattered showers. Passing clouds.9 mph79%29.92 "HgN/A
2:00 AM77 °FPassing clouds.10 mph79%29.92 "HgN/A
1:30 AM77 °FSprinkles. Passing clouds.13 mph79%29.92 "HgN/A
1:00 AM77 °FScattered showers. Passing clouds.10 mph79%29.95 "HgN/A
12:30 AM77 °FPassing clouds.10 mph74%29.95 "HgN/A
12:00 AM77 °FPassing clouds.8 mph79%29.95 "HgN/A
11:30 PM
Fri, Apr 17
77 °FPassing clouds.12 mph79%29.95 "HgN/A
11:00 PM77 °FPassing clouds.12 mph79%29.98 "HgN/A
10:30 PM77 °FPassing clouds.12 mph79%29.98 "HgN/A
10:00 PM77 °FPassing clouds.12 mph79%29.98 "HgN/A
9:30 PM77 °FSprinkles. Passing clouds.12 mph79%29.98 "HgN/A
9:00 PM77 °FPassing clouds.10 mph83%29.98 "HgN/A
8:30 PM75 °FScattered showers. Passing clouds.7 mph89%29.95 "HgN/A
8:00 PM75 °FScattered showers. Passing clouds.12 mph89%29.95 "HgN/A
7:30 PM77 °FScattered showers. Partly cloudy.10 mph79%29.95 "HgN/A
7:00 PM77 °FSprinkles. Passing clouds.12 mph79%29.92 "HgN/A
6:30 PM79 °FPassing clouds.10 mph74%29.92 "HgN/A
6:00 PM79 °FBroken clouds.12 mph74%29.92 "HgN/A
Weather by CustomWeather, © 2015

See weather overviewHow to use our weather pages